星链-6077 (STARLINK-6077 )

导读 | 星芒AI

STARLINK-6077 是 SpaceX Starlink 项目中的一颗低轨通信卫星,属于第 15 批组网卫星(即第 15 个“列车”)。该卫星于 2021 年 11 月 19 日由猎鹰 9 号火箭从美国卡纳维拉尔角发射升空,旨在为全球提供高速互联网服务。它运行在约 550 公里的近地轨道,设计寿命约为 5 至 7 年,具备自动避障和激光通信能力,有助于提升 Starlink 网络的稳定性和覆盖范围。

基本信息
目录编号:
56097
目录名称:
STARLINK-6077
国际标识:
2023-046E
轨道中心:
EARTH
卫星名称:
星链-6077
卫星全名:
星链-6077 (STARLINK-6077 )
卫星状态:
在轨 (已飞行951 天)
发射日期:
2023-03-29 UTC
国别 :
美国 (US)
星等 :
--
轨道信息
数据来源 国际轨道数据
星历时间: 2025-11-02T09:54:04+0800
1天前
查看轨道信息
半长轴: 6937.223km
偏心率: 0.0001206
轨道倾角: 43.004°
近地点辐角 271.205°
升交点赤经 80.500°
平近点角 88.865°
近地点: 558.251km
远地点: 559.925km
周期: 95.838分钟
每日圈数: 15.025339
详细信息
固有亮度:
5
最大亮度:
2.5
卫星平台:
Starlink v1.5
覆盖范围:
全球
运营商:
太空探索技术公司
运营商所在国:
美国
制造商(研发单位):
太空探索技术公司
制造商所在国:
美国
使用方式:
暂无
卫星简介
星链(Starlink)计划是由太空探索技术公司(SpaceX)提出的一个巨型低轨卫星互联网星座项目,计划在2019年至2024年间在太空搭建由约1.2万颗卫星组成的“星链”网络,其中1584颗将部署在地球上空550千米处的近地轨道,并从2020年开始工作。该卫星仍在工作。
2D轨道图
3D轨道图
轨道高度分析图
轨道倾角分析图
轨道综合分析图
查看轨道综合分析图